Aeroporto :
LOGIN :

Iscrizione | Disclaimer

   EN    FR    IT 

 










Sommario :    VFR   VFR Marginale   IFR   IFR Intensivo   IFR Molto Intensivo
Visibilità : 
Base nubi : 
>= 8 km
>= 3000ft
5 / 8 km
1000 / 3000 ft
1500m / 5 km
500 / 1000 ft
800 / 1500m
200 / 500 ft
< 800m
< 200 ft
Simboli :   Temporali  Nebbia  Neve Forte  Precipitazioni Forti  Vento > 20 kt
SIGMETs :   Varie  Temporali  Ghiacco  Turbolenza  Onda orograficha  Ceneri Vulcaniche







- Altitudine del aeroporto : 37 ft
- Codice IATA : OLB


LIEO - Olbia Costa Smeralda

ULTIMO METAR :
  • 160450Z 25012KT CAVOK 19/16 Q1016

METARs OBSOLETI :
  • 160420Z 24010KT CAVOK 19/16 Q1016
  • 160350Z 24012KT CAVOK 19/16 Q1016
  • 160320Z 25009KT CAVOK 19/15 Q1016
  • 160250Z 24010KT CAVOK 19/16 Q1016
  • 160220Z 25010KT CAVOK 19/16 Q1016

TAF TAF LIEO
Valido dal 16 a 00 ore il 17 a 00 ore UTC


152300Z 1600/1624 23006KT CAVOK
BECMG 1609/1611 06012KT
BECMG 1616/1618 23008KT
Nessun NOTAM noto per questo aeroporto.



MetMap, La meteo Aeronautica in un colpo d'occhio ! - Copyright ORBIFLY Dicembre 2007 - Disclaimer

ORBIFLY MET'MAP TEAM :

Programmazione e sviluppo : Alexandra Zaïnal
Concezione e sviluppo : Baudouin d'Aumeries
Co-Programmazione e sviluppo : Marc-Olivier Méhu
Supporto tecnico e logistico : Manuel Goepfert
Aiuto per la traduzione : Arnaldo La Scala

Contatto : metmap@orbifly.com




FONTI E CREDITI :

   NOAA